FW4411 Weather Reports


Display with metric or nautical units.
time (UTC)temp
F
wind
direction
speed
MPH
gust
MPH
rain 1hr
in
rain 24hr
in
rain mn
in
humidity
%
barometer
mb
20260505092845 58 120 1.0 0.0 0.00 0.00 0.00 85 1012.9
20260505092342 58 120 1.0 0.0 0.00 0.00 0.00 85 1012.8
20260505091831 58 120 1.0 0.0 0.00 0.00 0.00 84 1012.8
20260505091339 59 120 1.0 0.0 0.00 0.00 0.00 84 1012.8
20260505090836 59 120 2.0 0.0 0.00 0.00 0.00 84 1012.8
20260505090341 59 120 2.0 0.0 0.00 0.00 0.00 84 1012.7
20260505085842 59 167 2.0 0.0 0.00 0.00 0.00 83 1012.5
20260505085338 59 167 2.0 0.0 0.00 0.00 0.00 83 1012.5
20260505084826 60 167 2.0 0.0 0.00 0.00 0.00 83 1012.4
20260505084322 59 167 2.0 0.0 0.00 0.00 0.00 83 1012.4
20260505083820 60 173 1.0 0.0 0.00 0.00 0.00 83 1012.4
20260505083331 60 173 1.0 0.0 0.00 0.00 0.00 83 1012.4
20260505082848 60 173 2.0 0.0 0.00 0.00 0.00 82 1012.3
20260505082343 60 173 2.0 0.0 0.00 0.00 0.00 83 1012.4
20260505081817 60 153 2.0 0.0 0.00 0.00 0.00 83 1012.3
20260505081314 60 153 2.0 0.0 0.00 0.00 0.00 83 1012.4
20260505080853 59 153 1.0 0.0 0.00 0.00 0.00 83 1012.4
20260505080331 59 153 1.0 0.0 0.00 0.00 0.00 82 1012.4
20260505075850 60 153 1.0 0.0 0.00 0.00 0.00 82 1012.5
20260505075345 60 153 1.0 0.0 0.00 0.00 0.00 82 1012.5
20260505074840 60 153 1.0 0.0 0.00 0.00 0.00 82 1012.5
20260505074338 60 153 1.0 0.0 0.00 0.00 0.00 81 1012.4
20260505073838 60 153 1.0 0.0 0.00 0.00 0.00 81 1012.4
20260505073326 60 153 1.0 0.0 0.00 0.00 0.00 80 1012.4
20260505072822 60 153 1.0 0.0 0.00 0.00 0.00 80 1012.6
20260505072319 61 153 1.0 0.0 0.00 0.00 0.00 79 1012.6
20260505071828 61 153 2.0 0.0 0.00 0.00 0.00 78 1012.6
20260505071332 62 153 2.0 0.0 0.00 0.00 0.00 76 1012.7
20260505070820 63 165 2.0 0.0 0.00 0.00 0.00 75 1012.8
20260505070335 63 165 1.0 0.0 0.00 0.00 0.00 74 1012.9
20260505065842 63 184 2.0 0.0 0.00 0.00 0.00 74 1013.0
20260505065326 64 184 2.0 0.0 0.00 0.00 0.00 74 1013.1
20260505064827 63 152 2.0 0.0 0.00 0.00 0.00 75 1013.2
20260505064323 63 151 2.0 0.0 0.00 0.00 0.00 75 1013.3
20260505063841 63 151 1.0 0.0 0.00 0.00 0.00 74 1013.4
20260505063330 64 151 1.0 0.0 0.00 0.00 0.00 73 1013.5
20260505062848 65 151 1.0 0.0 0.00 0.00 0.00 71 1013.5
20260505062316 66 151 2.0 0.0 0.00 0.00 0.00 70 1013.4
20260505061839 66 151 2.0 0.0 0.00 0.00 0.00 68 1013.5
20260505061315 66 169 2.0 0.0 0.00 0.00 0.00 68 1013.5
20260505060833 67 165 2.0 0.0 0.00 0.00 0.00 67 1013.6
20260505060325 66 171 1.0 0.0 0.00 0.00 0.00 68 1013.7
20260505055822 66 172 2.0 0.0 0.00 0.00 0.00 69 1013.7
20260505055339 65 174 2.0 0.0 0.00 0.00 0.00 72 1013.8
20260505054816 64 173 2.0 0.0 0.00 0.00 0.00 73 1013.8
20260505054333 64 173 2.0 0.0 0.00 0.00 0.00 74 1014.1
20260505053815 63 174 1.0 0.0 0.00 0.00 0.00 75 1014.0
20260505053325 63 144 1.0 0.0 0.00 0.00 0.00 75 1014.1
20260505052829 63 144 1.0 0.0 0.00 0.00 0.00 75 1013.9
20260505052318 63 144 1.0 0.0 0.00 0.00 0.00 75 1013.9
20260505051838 63 144 1.0 0.0 0.00 0.00 0.00 75 1013.9
20260505051337 63 144 1.0 0.0 0.00 0.00 0.00 74 1013.9
20260505050825 64 144 1.0 0.0 0.00 0.00 0.00 72 1013.8
20260505050320 65 144 1.0 0.0 0.00 0.00 0.00 71 1013.9
20260505041353 65 178 2.0 0.0 0.00 0.00 0.00 72 1014.1
20260505040818 65 154 2.0 0.0 0.00 0.00 0.00 72 1014.1
20260505040333 65 155 2.0 0.0 0.00 0.00 0.00 71 1014.2
20260505035837 65 155 1.0 0.0 0.00 0.00 0.00 71 1014.2
20260505035329 66 155 1.0 0.0 0.00 0.00 0.00 70 1014.2
20260505034818 66 155 1.0 0.0 0.00 0.00 0.00 70 1014.1
20260505034317 67 157 1.0 0.0 0.00 0.00 0.00 69 1014.0
20260505033831 66 157 1.0 0.0 0.00 0.00 0.00 70 1014.0
20260505033329 66 157 1.0 0.0 0.00 0.00 0.00 70 1013.9
20260505032826 66 157 1.0 0.0 0.00 0.00 0.00 71 1014.2
20260505032314 66 159 1.0 0.0 0.00 0.00 0.00 71 1014.2
20260505031831 66 159 1.0 0.0 0.00 0.00 0.00 71 1014.2
20260505031325 66 159 1.0 0.0 0.00 0.00 0.00 71 1014.1
20260505030822 66 159 2.0 0.0 0.00 0.00 0.00 70 1014.1
20260505030323 66 159 1.0 0.0 0.00 0.00 0.00 70 1014.0
20260505025828 66 159 1.0 0.0 0.00 0.00 0.00 71 1014.1
20260505025319 66 159 1.0 0.0 0.00 0.00 0.00 70 1014.1
20260505024819 67 159 1.0 0.0 0.00 0.00 0.00 69 1014.1
20260505024314 68 182 2.0 0.0 0.00 0.00 0.00 68 1014.0
20260505023848 68 182 2.0 0.0 0.00 0.00 0.00 67 1013.9
20260505023343 68 194 2.0 0.0 0.00 0.00 0.00 66 1014.0
20260505022817 68 195 2.0 0.0 0.00 0.00 0.00 66 1014.0
20260505022330 68 161 2.0 0.0 0.00 0.00 0.00 66 1014.0
20260505021844 68 146 2.0 0.0 0.00 0.00 0.00 66 1013.9
20260505021326 68 164 2.0 0.0 0.00 0.00 0.00 65 1014.0
20260505020903 69 185 2.0 0.0 0.00 0.00 0.00 65 1013.9
20260505020400 69 162 2.0 0.0 0.00 0.00 0.00 64 1014.1
20260505015851 69 173 2.0 0.0 0.00 0.00 0.00 64 1014.0
20260505015328 69 182 2.0 0.0 0.00 0.00 0.00 64 1014.1
20260505014817 69 194 3.0 0.0 0.00 0.00 0.00 63 1014.0
20260505014315 69 143 4.0 0.0 0.00 0.00 0.00 62 1014.1
20260505013900 69 153 3.0 0.0 0.00 0.00 0.00 62 1014.3
20260505013326 69 162 3.0 0.0 0.00 0.00 0.00 62 1014.4
20260505012824 70 162 3.0 0.0 0.00 0.00 0.00 61 1014.4
20260505012318 70 189 4.0 0.0 0.00 0.00 0.00 61 1014.4
20260505011839 69 192 3.0 0.0 0.00 0.00 0.00 61 1014.3
20260505011326 70 188 3.0 0.0 0.00 0.00 0.00 60 1014.3
20260505010824 70 188 3.0 0.0 0.00 0.00 0.00 60 1014.2
20260505010313 70 169 3.0 0.0 0.00 0.00 0.00 59 1014.3
20260505005838 70 182 3.0 0.0 0.00 0.00 0.00 59 1014.3
20260505005325 70 167 4.0 0.0 0.00 0.00 0.00 58 1014.4
20260505004820 70 159 4.0 0.0 0.00 0.00 0.00 56 1014.4
20260505004317 71 163 4.0 0.0 0.00 0.00 0.00 56 1014.4
20260505003832 70 194 4.0 0.0 0.00 0.00 0.00 57 1014.3
20260505003324 71 204 4.0 0.0 0.00 0.00 0.00 56 1014.2
20260505002819 71 178 5.0 0.0 0.00 0.00 0.00 56 1014.3
20260505002325 71 162 4.0 0.0 0.00 0.00 0.00 56 1014.4
20260505001823 71 177 4.0 0.0 0.00 0.00 0.00 55 1014.3
20260505001317 71 198 5.0 0.0 0.00 0.00 0.00 54 1014.2
20260505000855 72 198 5.0 0.0 0.00 0.00 0.00 55 1014.2
20260505000323 72 198 5.0 0.0 0.00 0.00 0.00 58 1014.3
20260504235817 72 222 5.0 0.0 0.00 0.00 0.00 58 1014.3
20260504235330 72 213 5.0 0.0 0.00 0.00 0.00 57 1014.3
20260504234827 72 268 5.0 0.0 0.00 0.00 0.00 55 1014.5
20260504234327 72 210 6.0 0.0 0.00 0.00 0.00 55 1014.5
20260504233824 73 199 5.0 0.0 0.00 0.00 0.00 53 1014.4
20260504233330 73 197 5.0 0.0 0.00 0.00 0.00 54 1014.4
20260504232831 73 210 5.0 0.0 0.00 0.00 0.00 56 1014.3
20260504232346 73 176 5.0 0.0 0.00 0.00 0.00 53 1014.3
20260504231814 73 207 5.0 0.0 0.00 0.00 0.00 53 1014.3
20260504231311 73 207 6.0 0.0 0.00 0.00 0.00 53 1014.3
20260504230829 73 211 5.0 0.0 0.00 0.00 0.00 58 1014.4
20260504230329 73 202 5.0 0.0 0.00 0.00 0.00 52 1014.4
20260504225825 73 200 5.0 0.0 0.00 0.00 0.00 52 1014.5
20260504225331 73 200 5.0 0.0 0.00 0.00 0.00 51 1014.4
20260504224831 73 201 5.0 0.0 0.00 0.00 0.00 54 1014.5
20260504224330 73 192 5.0 0.0 0.00 0.00 0.00 52 1014.5
20260504223827 73 200 5.0 0.0 0.00 0.00 0.00 51 1014.5
20260504223316 73 179 5.0 0.0 0.00 0.00 0.00 52 1014.3
20260504222840 73 211 6.0 0.0 0.00 0.00 0.00 50 1014.4
20260504222331 73 206 6.0 0.0 0.00 0.00 0.00 54 1014.5
20260504221846 73 149 6.0 0.0 0.00 0.00 0.00 51 1014.6
20260504221319 73 214 5.0 0.0 0.00 0.00 0.00 51 1014.6
20260504220815 73 145 5.0 0.0 0.00 0.00 0.00 50 1014.5
20260504220322 73 202 6.0 0.0 0.00 0.00 0.00 51 1014.5
20260504215842 73 207 6.0 0.0 0.00 0.00 0.00 49 1014.5
20260504215329 74 216 6.0 0.0 0.00 0.00 0.00 48 1014.6
20260504214847 74 205 6.0 0.0 0.00 0.00 0.00 49 1014.5
20260504214322 74 169 5.0 0.0 0.00 0.00 0.00 48 1014.4
20260504213819 74 194 5.0 0.0 0.00 0.00 0.00 48 1014.5
20260504213325 74 201 6.0 0.0 0.00 0.00 0.00 50 1014.6
20260504212834 74 177 6.0 0.0 0.00 0.00 0.00 47 1014.6
20260504212321 74 194 6.0 0.0 0.00 0.00 0.00 48 1014.7
20260504211838 74 194 6.0 0.0 0.00 0.00 0.00 48 1014.7
20260504211333 74 186 6.0 0.0 0.00 0.00 0.00 46 1014.8
20260504210822 74 184 6.0 0.0 0.00 0.00 0.00 47 1014.7
20260504210343 75 205 6.0 0.0 0.00 0.00 0.00 49 1014.5
20260504205813 75 192 6.0 0.0 0.00 0.00 0.00 48 1014.6
20260504205311 75 161 6.0 0.0 0.00 0.00 0.00 49 1014.6
20260504204834 75 180 6.0 0.0 0.00 0.00 0.00 47 1014.6
20260504204315 75 196 6.0 0.0 0.00 0.00 0.00 47 1014.6
20260504203823 74 188 7.0 0.0 0.00 0.00 0.00 47 1014.6
20260504203320 74 196 7.0 0.0 0.00 0.00 0.00 47 1014.7
20260504202842 74 171 7.0 0.0 0.00 0.00 0.00 48 1014.9
20260504202326 74 217 7.0 0.0 0.00 0.00 0.00 47 1014.9
20260504201844 74 200 7.0 0.0 0.00 0.00 0.00 46 1014.9
20260504201315 75 186 7.0 0.0 0.00 0.00 0.00 47 1014.8
20260504200832 75 127 7.0 0.0 0.00 0.00 0.00 46 1014.8
20260504200322 74 192 6.0 0.0 0.00 0.00 0.00 45 1014.9
20260504195828 75 200 6.0 0.0 0.00 0.00 0.00 46 1015.1
20260504195331 75 196 6.0 0.0 0.00 0.00 0.00 46 1015.1
20260504194826 75 184 6.0 0.0 0.00 0.00 0.00 46 1015.2
20260504194324 75 205 6.0 0.0 0.00 0.00 0.00 47 1015.2
20260504193842 75 203 6.0 0.0 0.00 0.00 0.00 48 1015.4
20260504193328 74 215 6.0 0.0 0.00 0.00 0.00 47 1015.4
20260504192824 75 219 5.0 0.0 0.00 0.00 0.00 45 1015.3
20260504192322 75 182 5.0 0.0 0.00 0.00 0.00 49 1015.5
20260504191838 75 204 6.0 0.0 0.00 0.00 0.00 47 1015.6
20260504191318 74 178 5.0 0.0 0.00 0.00 0.00 44 1015.6
20260504190820 75 203 4.0 0.0 0.00 0.00 0.00 45 1015.8
20260504190314 74 198 5.0 0.0 0.00 0.00 0.00 41 1015.9
20260504185837 74 191 5.0 0.0 0.00 0.00 0.00 42 1015.9
20260504185325 74 223 5.0 0.0 0.00 0.00 0.00 43 1015.9
20260504184819 74 221 5.0 0.0 0.00 0.00 0.00 45 1015.9
20260504184315 74 196 5.0 0.0 0.00 0.00 0.00 43 1016.0
20260504183833 74 225 5.0 0.0 0.00 0.00 0.00 43 1016.0
20260504183319 74 200 5.0 0.0 0.00 0.00 0.00 41 1016.1
20260504182813 74 212 5.0 0.0 0.00 0.00 0.00 42 1016.1
20260504182333 74 205 5.0 0.0 0.00 0.00 0.00 47 1016.1
20260504181834 74 208 6.0 0.0 0.00 0.00 0.00 44 1016.2
20260504181326 74 229 5.0 0.0 0.00 0.00 0.00 47 1016.2
20260504180840 74 229 5.0 0.0 0.00 0.00 0.00 47 1016.3
20260504180328 74 231 5.0 0.0 0.00 0.00 0.00 47 1016.2
20260504175812 74 257 4.0 0.0 0.00 0.00 0.00 45 1016.3
20260504175329 74 229 5.0 0.0 0.00 0.00 0.00 46 1016.4
20260504174817 74 219 5.0 0.0 0.00 0.00 0.00 45 1016.3
20260504174314 73 230 4.0 0.0 0.00 0.00 0.00 45 1016.4
20260504173832 73 236 4.0 0.0 0.00 0.00 0.00 52 1016.5
20260504173332 73 253 4.0 0.0 0.00 0.00 0.00 45 1016.5
20260504172825 73 229 4.0 0.0 0.00 0.00 0.00 48 1016.6
20260504172314 73 241 5.0 0.0 0.00 0.00 0.00 48 1016.7
20260504171832 73 236 5.0 0.0 0.00 0.00 0.00 48 1016.7
20260504171325 73 231 5.0 0.0 0.00 0.00 0.00 47 1016.7
20260504170823 73 238 5.0 0.0 0.00 0.00 0.00 49 1016.7
20260504170338 73 242 4.0 0.0 0.00 0.00 0.00 48 1016.7
20260504160330 72 202 4.0 0.0 0.00 0.00 0.00 49 1017.2
20260504150822 69 269 4.0 0.0 0.00 0.00 0.00 64 1017.7
20260504150343 69 259 3.0 0.0 0.00 0.00 0.00 63 1017.6
20260504141325 68 199 2.0 0.0 0.00 0.00 0.00 64 1017.8
20260504140822 68 196 2.0 0.0 0.00 0.00 0.00 63 1017.8
20260504140334 68 159 1.0 0.0 0.00 0.00 0.00 62 1017.8
20260504130331 65 146 1.0 0.0 0.00 0.00 0.00 66 1017.4
20260504110326 53 173 1.0 0.0 0.00 0.00 0.00 83 1016.8
20260504100321 55 24 0.0 0.0 0.00 0.00 0.00 84 1016.8